QPF
0.00 0.00 0.00 0.00 0.00 0.00 0.00 0.00 0.00 0.00 0.00 0.00 0.00 0.00 0.01 0.00 0.00 0.00 0.01 0.01 0.02 0.04 0.04 0.02 0.01 0.00 0.00 0.00 0.00 0.01 0.00 0.01 0.01 0.01 0.01 0.00 0.00 0.00 0.00 0.01 0.01 0.01 0.01
0.00 0.00 0.00 0.00 0.00 0.00 0.00 0.00 0.00 0.00 0.00 0.00 0.00 0.00 0.00 0.00 0.00 0.00 0.00 0.01 0.02 0.02 0.01 0.01 0.01 0.01 0.00 0.00 0.00 0.01 0.00 0.00 0.01 0.00 0.01 0.01 0.00 0.00 0.00 0.01 0.01 0.01 0.00
0.00 0.00 0.00 0.00 0.00 0.00 0.00 0.00 0.00 0.00 0.00 0.00 0.00 0.00 0.00 0.00 0.00 0.00 0.00 0.00 0.00 0.00 0.00 0.00 0.00 0.00 0.00 0.00 0.00 0.01 0.00 0.00 0.00 0.00 0.00 0.00 0.00 0.00 0.01 0.01 0.01 0.00 0.00
0.00 0.00 0.00 0.00 0.00 0.00 0.00 0.00 0.00 0.00 0.00 0.00 0.00 0.00 0.00 0.00 0.00 0.00 0.00 0.00 0.00 0.00 0.00 0.00 0.00 0.00 0.00 0.00 0.00 0.02 0.00 0.00 0.00 0.00 0.00 0.00 0.00 0.00 0.00 0.00 0.00 0.01 0.00
0.00 0.00 0.00 0.00 0.00 0.00 0.00 0.00 0.00 0.00 0.00 0.00 0.00 0.00 0.00 0.00 0.00 0.00 0.00 0.00 0.00 0.00 0.00 0.00 0.00 0.01 0.00 0.00 0.00 0.01 0.00 0.00 0.00 0.00 0.00 0.00 0.01 0.00 0.00 0.00 0.00 0.00 0.01
0.00 0.00 0.00 0.00 0.00 0.00 0.00 0.00 0.00 0.00 0.00 0.00 0.00 0.00 0.00 0.00 0.00 0.00 0.00 0.00 0.00 0.00 0.00 0.00 0.00 0.00 0.01 0.00 0.00 0.00 0.01 0.00 0.00 0.00 0.00 0.00 0.00 0.00 0.00 0.00 0.00 0.00 0.00
0.00 0.00 0.00 0.00 0.00 0.00 0.00 0.00 0.00 0.00 0.00 0.00 0.00 0.00 0.00 0.00 0.00 0.00 0.00 0.00 0.00 0.00 0.00 0.00 0.00 0.00 0.00 0.00 0.00 0.01 0.01 0.01 0.00 0.00 0.00 0.00 0.00 0.00 0.00 0.01 0.00 0.00 0.00
0.00 0.00 0.00 0.00 0.00 0.00 0.00 0.00 0.00 0.00 0.00 0.00 0.00 0.00 0.00 0.00 0.00 0.00 0.00 0.00 0.00 0.00 0.00 0.00 0.00 0.00 0.00 0.00 0.00 0.00 0.00 0.00 0.01 0.00 0.00 0.00 0.00 0.00 0.00 0.00 0.00 0.00 0.00
0.00 0.00 0.00 0.00 0.00 0.00 0.00 0.00 0.00 0.00 0.00 0.00 0.00 0.00 0.00 0.00 0.00 0.00 0.00 0.00 0.00 0.00 0.00 0.00 0.00 0.00 0.00 0.00 0.00 0.00 0.00 0.00 0.01 0.01 0.00 0.00 0.00 0.00 0.00 0.00 0.00 0.00 0.00
0.00 0.00 0.00 0.00 0.00 0.00 0.00 0.00 0.00 0.00 0.00 0.00 0.00 0.00 0.00 0.00 0.00 0.00 0.00 0.00 0.00 0.00 0.00 0.00 0.00 0.00 0.00 0.00 0.00 0.00 0.00 0.00 0.00 0.00 0.00 0.00 0.00 0.00 0.00 0.00 0.00 0.00 0.00
0.00 0.00 0.00 0.00 0.00 0.00 0.00 0.00 0.00 0.00 0.00 0.00 0.00 0.00 0.00 0.00 0.00 0.00 0.00 0.00 0.00 0.00 0.00 0.00 0.00 0.00 0.00 0.00 0.00 0.00 0.00 0.00 0.00 0.00 0.00 0.00 0.00 0.00 0.00 0.00 0.00 0.00 0.00
0.00 0.00 0.00 0.00 0.00 0.00 0.00 0.00 0.00 0.00 0.00 0.00 0.00 0.00 0.00 0.00 0.00 0.00 0.00 0.00 0.00 0.00 0.00 0.00 0.00 0.00 0.00 0.00 0.00 0.00 0.00 0.00 0.00 0.00 0.00 0.00 0.00 0.00 0.00 0.00 0.00 0.00 0.00
0.00 0.00 0.00 0.00 0.00 0.00 0.00 0.00 0.00 0.00 0.00 0.00 0.00 0.00 0.00 0.00 0.00 0.00 0.00 0.00 0.00 0.00 0.00 0.00 0.00 0.00 0.00 0.00 0.00 0.00 0.00 0.00 0.00 0.00 0.00 0.00 0.00 0.00 0.00 0.00 0.00 0.00 0.00
0.00 0.00 0.00 0.00 0.00 0.00 0.00 0.00 0.00 0.00 0.00 0.00 0.00 0.00 0.00 0.00 0.00 0.00 0.00 0.00 0.00 0.00 0.00 0.00 0.00 0.00 0.00 0.00 0.00 0.00 0.00 0.00 0.00 0.00 0.00 0.00 0.00 0.00 0.00 0.00 0.00 0.00 0.00
0.01 0.00 0.00 0.00 0.00 0.00 0.00 0.00 0.00 0.00 0.00 0.00 0.00 0.00 0.00 0.00 0.00 0.00 0.00 0.00 0.00 0.00 0.00 0.00 0.00 0.00 0.00 0.00 0.00 0.00 0.00 0.00 0.00 0.00 0.00 0.00 0.00 0.00 0.00 0.00 0.00 0.00 0.00
0.03 0.01 0.00 0.00 0.00 0.00 0.00 0.00 0.00 0.00 0.00 0.00 0.00 0.00 0.00 0.00 0.00 0.00 0.00 0.00 0.00 0.00 0.00 0.00 0.00 0.00 0.00 0.00 0.00 0.00 0.00 0.00 0.00 0.00 0.00 0.00 0.00 0.00 0.00 0.00 0.00 0.00 0.00
0.29 0.03 0.01 0.00 0.00 0.00 0.00 0.00 0.00 0.00 0.00 0.00 0.00 0.00 0.00 0.00 0.00 0.00 0.00 0.00 0.00 0.00 0.00 0.00 0.00 0.00 0.00 0.00 0.00 0.00 0.00 0.00 0.00 0.00 0.00 0.00 0.00 0.00 0.00 0.00 0.00 0.00 0.00
0.64 0.23 0.04 0.00 0.00 0.00 0.00 0.00 0.00 0.00 0.00 0.00 0.00 0.00 0.00 0.00 0.00 0.00 0.00 0.00 0.00 0.00 0.00 0.00 0.00 0.00 0.00 0.00 0.00 0.00 0.00 0.00 0.00 0.00 0.00 0.00 0.00 0.00 0.00 0.00 0.00 0.00 0.00
0.60 0.47 0.11 0.00 0.00 0.00 0.00 0.00 0.00 0.00 0.00 0.00 0.00 0.00 0.00 0.00 0.00 0.00 0.00 0.00 0.00 0.00 0.00 0.00 0.00 0.00 0.00 0.00 0.00 0.00 0.00 0.00 0.00 0.00 0.00 0.00 0.00 0.00 0.00 0.00 0.00 0.00 0.00
0.59 0.62 0.36 0.04 0.00 0.00 0.00 0.00 0.00 0.00 0.00 0.00 0.00 0.00 0.00 0.00 0.00 0.00 0.00 0.00 0.00 0.00 0.00 0.00 0.00 0.00 0.00 0.00 0.00 0.00 0.00 0.00 0.00 0.00 0.00 0.00 0.00 0.00 0.00 0.00 0.00 0.00 0.00
0.70 0.60 0.56 0.23 0.01 0.00 0.00 0.00 0.00 0.00 0.00 0.00 0.00 0.00 0.00 0.00 0.00 0.00 0.00 0.00 0.00 0.00 0.00 0.00 0.00 0.00 0.00 0.00 0.00 0.00 0.00 0.00 0.00 0.00 0.00 0.00 0.00 0.00 0.00 0.00 0.00 0.00 0.00
0.56 0.67 0.56 0.46 0.23 0.04 0.00 0.00 0.00 0.00 0.00 0.00 0.00 0.00 0.00 0.00 0.00 0.00 0.00 0.00 0.00 0.00 0.00 0.00 0.00 0.00 0.00 0.00 0.00 0.00 0.00 0.00 0.00 0.00 0.00 0.00 0.00 0.00 0.00 0.00 0.00 0.00 0.00
0.42 0.52 0.60 0.62 0.56 0.36 0.08 0.00 0.00 0.00 0.00 0.00 0.00 0.00 0.00 0.00 0.00 0.00 0.00 0.00 0.00 0.00 0.00 0.00 0.00 0.00 0.00 0.00 0.00 0.00 0.00 0.00 0.00 0.00 0.00 0.00 0.00 0.00 0.00 0.00 0.00 0.00 0.00
0.20 0.32 0.46 0.61 0.67 0.48 0.18 0.02 0.00 0.00 0.00 0.00 0.00 0.00 0.00 0.00 0.00 0.00 0.00 0.00 0.00 0.00 0.00 0.00 0.00 0.00 0.00 0.00 0.00 0.00 0.00 0.00 0.00 0.00 0.00 0.00 0.00 0.00 0.00 0.00 0.00 0.00 0.00
0.18 0.18 0.24 0.33 0.53 0.67 0.58 0.28 0.09 0.03 0.00 0.00 0.00 0.00 0.00 0.00 0.00 0.00 0.00 0.00 0.00 0.00 0.00 0.00 0.00 0.00 0.00 0.00 0.00 0.00 0.00 0.00 0.00 0.00 0.00 0.00 0.00 0.00 0.00 0.00 0.00 0.00 0.00
0.11 0.13 0.18 0.22 0.23 0.26 0.32 0.38 0.37 0.31 0.21 0.07 0.01 0.00 0.01 0.00 0.00 0.00 0.00 0.00 0.00 0.00 0.00 0.00 0.00 0.00 0.00 0.00 0.00 0.00 0.00 0.00 0.00 0.00 0.00 0.00 0.00 0.00 0.00 0.00 0.00 0.00 0.00
MSLP
1013.26 1013.87 1014.76 1015.30 1015.81 1016.25 1016.65 1017.33 1017.67 1018.17 1018.64 1019.09 1019.48 1019.93 1020.42 1020.97 1021.63 1021.78 1022.17 1022.30 1022.37 1022.43 1022.63 1022.87 1023.10 1023.36 1023.50 1023.54 1023.45 1023.55 1023.47 1023.49 1023.51 1023.47 1023.53 1023.61 1023.63 1023.56 1023.43 1023.24 1023.18 1023.23 1023.29
1012.39 1013.36 1014.36 1014.91 1015.50 1016.00 1016.39 1017.02 1017.66 1018.11 1018.54 1018.89 1019.37 1019.98 1020.47 1021.04 1021.55 1022.00 1022.34 1022.74 1022.81 1022.81 1022.84 1023.13 1023.31 1023.52 1023.76 1023.98 1023.78 1023.86 1023.96 1023.98 1024.00 1024.05 1024.06 1024.02 1024.06 1023.95 1023.86 1023.79 1023.83 1023.82 1023.87
1011.68 1012.59 1013.64 1014.57 1015.08 1015.56 1016.11 1016.82 1017.44 1017.96 1018.56 1018.97 1019.54 1019.93 1020.30 1020.83 1021.57 1022.14 1022.59 1022.94 1023.14 1023.18 1023.23 1023.50 1023.69 1023.84 1024.13 1024.17 1024.11 1024.16 1024.43 1024.48 1024.51 1024.53 1024.58 1024.59 1024.54 1024.53 1024.40 1024.38 1024.33 1024.39 1024.41
1011.14 1012.08 1013.04 1013.94 1014.70 1015.32 1015.94 1016.72 1017.33 1018.13 1018.77 1019.27 1019.78 1020.06 1020.45 1020.97 1021.51 1022.02 1022.56 1022.97 1023.31 1023.54 1023.66 1023.84 1024.01 1024.11 1024.36 1024.42 1024.31 1024.47 1024.82 1024.90 1024.89 1024.92 1024.93 1025.07 1025.06 1025.01 1024.96 1024.93 1024.86 1024.86 1024.76
1010.75 1011.55 1012.56 1013.38 1014.40 1015.25 1015.94 1016.67 1017.35 1018.05 1019.00 1019.57 1020.05 1020.44 1020.94 1021.65 1021.81 1022.02 1022.50 1022.87 1023.28 1023.70 1023.93 1024.31 1024.31 1024.34 1024.52 1024.67 1024.68 1024.74 1025.07 1025.20 1025.20 1025.29 1025.32 1025.32 1025.46 1025.52 1025.47 1025.44 1025.38 1025.30 1025.19
1010.41 1011.22 1012.11 1013.23 1014.25 1015.27 1016.01 1016.52 1017.30 1018.03 1019.03 1019.67 1020.37 1020.98 1021.51 1021.94 1022.14 1022.67 1022.91 1023.17 1023.51 1023.84 1024.16 1024.54 1024.56 1024.67 1024.72 1024.82 1025.02 1025.01 1025.27 1025.50 1025.53 1025.63 1025.75 1025.77 1025.81 1025.85 1025.89 1025.89 1025.81 1025.78 1025.68
1010.08 1010.84 1011.74 1013.04 1014.07 1015.03 1015.82 1016.43 1017.18 1017.99 1019.08 1019.73 1020.64 1021.46 1022.02 1022.31 1022.68 1022.97 1023.18 1023.49 1023.72 1024.05 1024.32 1024.60 1024.84 1024.86 1024.98 1025.06 1025.18 1025.25 1025.38 1025.62 1025.81 1025.93 1025.97 1026.03 1026.18 1026.25 1026.24 1026.23 1026.27 1026.30 1026.32
1009.50 1010.31 1011.44 1012.63 1014.02 1014.81 1015.60 1016.21 1016.81 1017.84 1018.84 1019.48 1020.45 1021.58 1022.49 1022.93 1022.94 1023.05 1023.41 1023.59 1023.90 1024.05 1024.26 1024.41 1024.62 1024.93 1025.14 1025.38 1025.57 1025.61 1025.64 1025.70 1025.91 1026.13 1026.23 1026.35 1026.42 1026.49 1026.60 1026.69 1026.64 1026.66 1026.66
1009.12 1009.88 1011.14 1012.21 1013.68 1014.50 1015.09 1015.83 1016.51 1017.17 1018.18 1019.26 1019.96 1020.53 1022.08 1022.42 1022.84 1023.26 1023.50 1023.76 1024.07 1024.24 1024.37 1024.39 1024.47 1024.80 1025.13 1025.48 1025.72 1025.87 1025.86 1025.84 1025.91 1026.16 1026.36 1026.47 1026.57 1026.71 1026.83 1026.96 1027.03 1027.13 1027.13
1008.73 1009.59 1010.65 1011.77 1013.14 1014.14 1014.86 1015.48 1016.17 1016.89 1017.61 1018.59 1019.59 1019.84 1020.02 1020.42 1021.91 1023.43 1023.58 1023.73 1023.94 1024.29 1024.41 1024.48 1024.58 1024.64 1025.08 1025.39 1025.66 1025.90 1025.95 1025.98 1026.00 1026.18 1026.42 1026.54 1026.63 1026.65 1026.95 1027.12 1027.26 1027.36 1027.44
1008.53 1009.22 1010.29 1011.39 1012.62 1013.61 1014.56 1015.12 1015.99 1016.68 1017.37 1018.06 1018.77 1019.46 1019.85 1020.30 1020.61 1021.95 1023.21 1023.63 1023.83 1023.99 1024.09 1024.28 1024.52 1024.68 1024.87 1025.25 1025.62 1025.83 1025.95 1026.04 1026.02 1026.17 1026.43 1026.62 1026.67 1026.85 1026.95 1027.20 1027.42 1027.61 1027.68
1008.26 1008.96 1010.21 1010.98 1012.18 1013.09 1013.96 1014.74 1015.50 1016.36 1017.06 1017.72 1018.29 1018.85 1019.33 1019.88 1020.28 1020.80 1022.07 1023.02 1023.57 1023.81 1023.91 1024.04 1024.30 1024.53 1024.66 1024.96 1025.18 1025.59 1025.88 1026.05 1026.18 1026.21 1026.33 1026.60 1026.80 1026.97 1027.04 1027.18 1027.39 1027.62 1027.78
1007.51 1008.31 1009.49 1010.52 1011.62 1012.59 1013.47 1014.22 1015.01 1015.89 1016.59 1017.20 1017.76 1018.49 1018.83 1019.21 1019.48 1020.05 1020.96 1022.28 1023.13 1023.63 1023.82 1023.91 1023.93 1024.05 1024.24 1024.53 1024.94 1025.29 1025.67 1025.98 1026.14 1026.25 1026.30 1026.51 1026.88 1027.05 1027.17 1027.24 1027.27 1027.43 1027.65
1006.43 1007.65 1008.60 1009.55 1010.67 1011.93 1012.90 1013.74 1014.55 1015.32 1016.14 1016.76 1017.38 1018.03 1018.57 1018.80 1018.98 1019.46 1020.21 1021.09 1022.55 1023.15 1023.43 1023.39 1023.43 1023.63 1023.83 1024.13 1024.53 1025.00 1025.45 1025.74 1026.01 1026.22 1026.30 1026.35 1026.68 1026.98 1027.16 1027.30 1027.40 1027.55 1027.70
1005.77 1006.81 1007.86 1009.05 1010.35 1011.46 1012.42 1013.20 1013.95 1014.74 1015.52 1016.22 1016.92 1017.62 1018.14 1018.49 1018.71 1018.95 1019.52 1020.15 1020.82 1022.12 1022.88 1022.88 1023.09 1023.07 1023.38 1023.70 1024.15 1024.68 1025.11 1025.50 1025.78 1026.01 1026.20 1026.40 1026.56 1026.79 1027.06 1027.29 1027.43 1027.58 1027.75
1004.73 1006.20 1007.20 1008.45 1009.94 1011.08 1011.88 1012.65 1013.45 1014.15 1014.83 1015.59 1016.37 1017.13 1017.77 1018.14 1018.43 1018.74 1019.18 1019.62 1020.17 1020.79 1021.84 1021.90 1022.18 1022.36 1022.85 1023.31 1023.90 1024.21 1024.61 1025.02 1025.38 1025.67 1025.96 1026.26 1026.46 1026.63 1026.86 1027.09 1027.28 1027.44 1027.57
1004.92 1005.71 1006.73 1007.94 1009.16 1010.24 1011.13 1011.92 1012.68 1013.44 1014.13 1014.85 1015.64 1016.47 1017.25 1017.72 1018.22 1018.57 1018.93 1019.32 1019.82 1020.25 1020.86 1021.41 1021.60 1021.87 1022.62 1023.13 1023.76 1023.95 1024.27 1024.70 1025.03 1025.37 1025.65 1025.88 1026.20 1026.36 1026.56 1026.72 1026.92 1027.12 1027.32
1005.51 1005.15 1006.18 1007.27 1008.38 1009.38 1010.24 1010.97 1011.76 1012.66 1013.43 1014.22 1014.93 1015.69 1016.53 1017.19 1017.81 1018.23 1018.67 1019.07 1019.44 1019.75 1020.25 1020.91 1021.32 1021.85 1022.23 1022.67 1023.18 1023.84 1024.09 1024.22 1024.58 1024.95 1025.20 1025.47 1025.87 1026.01 1026.18 1026.34 1026.58 1026.73 1026.94
1006.84 1005.02 1005.29 1006.51 1007.62 1008.63 1009.52 1010.24 1010.84 1011.83 1012.70 1013.40 1014.22 1014.91 1015.77 1016.48 1017.32 1017.77 1018.26 1018.75 1019.08 1019.35 1019.78 1020.30 1021.06 1021.40 1021.93 1022.52 1023.31 1023.59 1023.84 1024.07 1024.20 1024.41 1024.77 1025.08 1025.35 1025.57 1025.80 1025.99 1026.14 1026.33 1026.52
1007.51 1006.57 1005.18 1005.97 1006.94 1008.02 1008.80 1009.49 1010.13 1011.09 1012.00 1012.79 1013.63 1014.23 1015.03 1015.71 1016.41 1017.14 1017.72 1018.24 1018.67 1019.18 1019.49 1019.94 1020.49 1021.06 1021.59 1022.13 1022.64 1023.24 1023.77 1023.91 1024.05 1024.16 1024.44 1024.58 1024.91 1025.10 1025.30 1025.48 1025.65 1025.83 1026.05
1007.95 1007.48 1006.17 1005.79 1006.37 1007.44 1008.12 1008.71 1009.46 1010.20 1011.15 1012.06 1012.84 1013.53 1014.29 1014.95 1015.54 1016.19 1016.92 1017.54 1018.08 1018.67 1019.07 1019.55 1020.16 1020.52 1021.09 1021.54 1021.88 1022.49 1023.11 1023.32 1023.73 1023.77 1024.25 1024.38 1024.60 1024.82 1024.82 1024.99 1025.13 1025.34 1025.52
1009.30 1008.14 1007.84 1006.72 1006.64 1006.90 1007.76 1007.99 1008.68 1009.47 1010.37 1011.19 1012.00 1012.72 1013.48 1014.15 1014.82 1015.49 1016.09 1016.65 1017.11 1017.71 1018.22 1018.66 1019.26 1019.66 1019.98 1020.49 1021.06 1021.63 1022.00 1023.07 1023.57 1023.05 1023.47 1023.84 1023.88 1024.23 1024.15 1024.29 1024.32 1024.58 1024.89
1009.42 1009.42 1009.20 1008.94 1008.51 1008.89 1009.17 1008.69 1008.63 1008.92 1009.76 1010.44 1011.05 1011.84 1012.63 1013.29 1013.97 1014.72 1015.35 1015.81 1016.23 1016.62 1016.90 1017.42 1018.08 1018.48 1018.91 1019.15 1019.97 1020.69 1021.18 1021.71 1021.76 1021.59 1022.43 1023.07 1023.29 1023.38 1023.17 1023.28 1023.52 1023.77 1024.19
1010.39 1010.29 1010.87 1009.90 1010.16 1010.03 1009.85 1009.41 1008.46 1008.75 1009.30 1009.86 1010.25 1010.99 1011.63 1012.30 1013.10 1013.83 1014.63 1015.23 1015.64 1015.89 1016.17 1016.42 1016.77 1017.11 1017.36 1017.95 1018.58 1018.78 1019.55 1020.31 1021.18 1021.15 1021.36 1022.45 1022.43 1022.62 1022.61 1022.61 1022.75 1023.06 1023.44
1012.39 1011.74 1011.52 1011.90 1011.83 1011.74 1010.23 1009.67 1009.02 1009.02 1009.27 1009.19 1009.67 1010.24 1010.81 1011.46 1012.00 1012.74 1013.50 1014.18 1014.70 1015.01 1015.39 1015.70 1015.94 1016.38 1016.67 1016.91 1017.50 1018.58 1019.45 1020.17 1020.72 1020.79 1021.09 1021.37 1021.75 1022.11 1022.26 1022.13 1022.11 1022.33 1022.75
1014.38 1013.42 1012.76 1013.07 1012.98 1012.74 1011.60 1010.46 1010.78 1010.09 1009.76 1009.73 1009.41 1009.58 1010.14 1010.68 1011.16 1011.75 1012.47 1013.18 1013.72 1014.12 1014.75 1015.40 1016.05 1016.40 1016.40 1016.42 1016.83 1017.07 1017.85 1018.74 1019.51 1020.21 1020.17 1020.80 1021.19 1021.59 1022.35 1021.68 1021.28 1021.64 1022.21
Thickness
5694 5695 5691 5692 5693 5696 5696 5695 5697 5695 5694 5695 5695 5695 5695 5694 5691 5691 5689 5688 5687 5686 5684 5682 5680 5678 5677 5676 5675 5674 5673 5672 5670 5668 5665 5662 5660 5658 5657 5656 5654 5651 5647
5694 5692 5689 5690 5691 5693 5695 5693 5694 5693 5693 5693 5693 5692 5692 5691 5689 5688 5686 5684 5684 5683 5682 5679 5678 5677 5675 5673 5674 5672 5671 5670 5668 5666 5664 5661 5658 5657 5655 5654 5651 5649 5646
5692 5691 5689 5688 5689 5691 5692 5691 5690 5691 5691 5691 5690 5691 5691 5690 5687 5684 5682 5681 5681 5680 5679 5676 5675 5674 5672 5672 5673 5671 5669 5667 5666 5664 5661 5659 5657 5654 5653 5651 5649 5646 5644
5688 5687 5687 5687 5687 5688 5690 5689 5689 5686 5685 5685 5685 5688 5688 5687 5684 5683 5680 5679 5679 5677 5676 5674 5672 5672 5670 5670 5671 5670 5666 5665 5664 5663 5660 5657 5655 5653 5650 5648 5647 5645 5643
5683 5683 5683 5684 5683 5683 5685 5685 5683 5682 5680 5679 5680 5682 5682 5681 5681 5681 5679 5678 5677 5675 5673 5670 5670 5669 5668 5667 5668 5667 5665 5664 5663 5661 5659 5657 5654 5651 5649 5646 5644 5643 5642
5678 5677 5679 5678 5677 5677 5679 5680 5678 5678 5675 5675 5675 5675 5675 5675 5676 5675 5675 5674 5673 5672 5670 5667 5667 5666 5666 5665 5664 5665 5663 5662 5661 5659 5657 5656 5653 5651 5648 5645 5643 5641 5640
5671 5673 5675 5673 5671 5673 5674 5675 5675 5673 5671 5670 5669 5666 5666 5668 5669 5670 5671 5670 5669 5668 5667 5665 5664 5664 5664 5663 5662 5662 5661 5660 5659 5657 5656 5654 5652 5650 5648 5645 5642 5639 5637
5671 5672 5672 5670 5665 5667 5669 5671 5672 5669 5668 5667 5665 5658 5654 5659 5664 5667 5666 5667 5666 5666 5665 5664 5663 5662 5661 5660 5659 5658 5658 5658 5657 5655 5654 5652 5651 5649 5646 5644 5642 5639 5637
5664 5667 5668 5666 5661 5663 5667 5668 5670 5671 5668 5665 5665 5662 5652 5655 5658 5661 5663 5664 5663 5663 5663 5663 5662 5660 5659 5658 5656 5656 5655 5656 5656 5654 5652 5651 5650 5648 5645 5643 5640 5637 5635
5661 5664 5665 5663 5659 5659 5661 5665 5667 5667 5667 5663 5661 5667 5671 5672 5657 5653 5658 5660 5661 5660 5660 5660 5660 5659 5657 5656 5654 5653 5653 5653 5653 5652 5650 5649 5648 5647 5644 5642 5639 5637 5634
5655 5661 5661 5659 5657 5657 5655 5660 5661 5662 5662 5663 5663 5662 5666 5667 5669 5661 5654 5655 5658 5659 5659 5658 5658 5657 5655 5654 5653 5651 5651 5650 5651 5650 5649 5648 5647 5645 5643 5641 5638 5635 5633
5647 5653 5652 5653 5653 5654 5655 5657 5658 5657 5658 5659 5660 5661 5665 5664 5666 5665 5658 5655 5655 5656 5657 5656 5656 5655 5654 5653 5652 5650 5649 5648 5648 5648 5647 5646 5645 5643 5642 5640 5638 5635 5633
5643 5648 5648 5647 5647 5650 5652 5654 5654 5655 5655 5658 5658 5659 5662 5664 5668 5668 5665 5657 5653 5652 5653 5654 5654 5655 5654 5653 5652 5650 5648 5646 5646 5645 5645 5644 5642 5641 5639 5638 5637 5635 5632
5648 5649 5651 5650 5651 5648 5648 5649 5651 5652 5651 5653 5654 5655 5657 5661 5665 5666 5663 5661 5651 5650 5650 5651 5654 5653 5653 5652 5651 5649 5647 5645 5643 5642 5642 5642 5640 5638 5637 5636 5635 5633 5631
5645 5647 5648 5644 5641 5640 5641 5643 5646 5647 5648 5649 5650 5650 5653 5656 5660 5663 5663 5662 5660 5649 5646 5650 5650 5652 5652 5651 5649 5647 5645 5643 5641 5640 5640 5638 5638 5637 5635 5633 5632 5630 5628
5644 5641 5642 5638 5632 5630 5633 5636 5639 5641 5644 5644 5645 5646 5647 5651 5654 5657 5659 5659 5659 5655 5648 5652 5652 5653 5650 5648 5647 5645 5643 5642 5640 5639 5638 5636 5635 5634 5633 5631 5629 5628 5627
5630 5632 5633 5631 5628 5626 5629 5631 5633 5636 5640 5641 5642 5642 5642 5645 5647 5650 5653 5653 5654 5654 5650 5650 5651 5650 5647 5645 5643 5642 5641 5640 5639 5636 5635 5634 5632 5631 5630 5629 5627 5626 5625
5613 5623 5625 5624 5623 5624 5627 5628 5629 5631 5633 5634 5637 5639 5639 5640 5641 5643 5645 5647 5649 5649 5649 5646 5645 5644 5644 5642 5641 5637 5637 5636 5636 5634 5633 5632 5628 5627 5627 5626 5624 5624 5622
5591 5616 5623 5617 5618 5619 5621 5623 5627 5627 5627 5631 5631 5634 5634 5635 5635 5637 5640 5641 5642 5644 5645 5644 5640 5640 5639 5637 5633 5632 5632 5632 5631 5630 5630 5627 5625 5624 5623 5621 5621 5620 5619
5575 5593 5612 5613 5614 5614 5615 5618 5622 5622 5622 5624 5625 5628 5628 5630 5632 5632 5633 5635 5636 5636 5638 5639 5636 5635 5634 5632 5631 5629 5625 5625 5626 5626 5625 5623 5622 5620 5619 5618 5617 5617 5616
5562 5570 5592 5603 5607 5606 5610 5614 5615 5618 5617 5619 5621 5623 5624 5627 5628 5629 5629 5630 5630 5629 5629 5630 5630 5630 5628 5627 5629 5624 5623 5621 5621 5622 5618 5617 5618 5615 5616 5615 5614 5613 5612
5541 5554 5566 5585 5596 5599 5596 5608 5611 5613 5613 5614 5616 5618 5619 5620 5622 5623 5624 5625 5628 5626 5626 5626 5627 5627 5628 5627 5625 5623 5621 5615 5611 5617 5613 5613 5613 5611 5612 5612 5611 5610 5608
5529 5538 5543 5553 5564 5565 5574 5589 5598 5606 5605 5607 5612 5614 5615 5617 5618 5619 5618 5621 5623 5624 5627 5626 5625 5626 5625 5628 5621 5618 5618 5615 5615 5617 5614 5611 5610 5609 5611 5610 5608 5608 5604
5509 5516 5519 5533 5538 5548 5558 5571 5588 5597 5601 5603 5608 5610 5611 5614 5614 5615 5613 5614 5616 5619 5620 5623 5624 5626 5628 5625 5622 5623 5618 5614 5611 5613 5611 5606 5605 5606 5606 5607 5604 5603 5601
5481 5493 5503 5506 5513 5523 5546 5558 5571 5580 5586 5597 5600 5603 5607 5609 5611 5611 5612 5611 5612 5613 5614 5616 5617 5618 5621 5622 5619 5611 5607 5604 5601 5606 5605 5605 5603 5600 5599 5603 5601 5599 5596
5450 5464 5476 5486 5495 5503 5523 5541 5543 5555 5568 5576 5589 5595 5595 5600 5602 5602 5605 5606 5606 5610 5609 5606 5606 5608 5610 5613 5613 5611 5607 5601 5599 5598 5602 5597 5594 5592 5587 5596 5599 5597 5592